Location: Nantong Television Tower
(32.0188°N, 120.8512°E)
Time: 16:25:17
(UTC+08:00)

Daily predictions for brighter satellites

Satellite Brightness Start Highest point End
(mag) Time Altitude Azimuth Time Altitude Azimuth Time Altitude Azimuth
Helios 1A 4.4 19:16:27 10° S 19:20:24 41° W 19:24:21 10° NNW
In-Cosmos 22 Rocket 4.3 19:15:57 10° S 19:21:45 75° E 19:27:33 10° NNE
Coronas F rocket 2.6 19:19:52 10° SE 19:21:57 21° E 19:24:02 10° NE
Okean 1-7 3.1 19:19:23 10° N 19:23:38 59° E 19:27:54 10° SSE
Resurs 01 Rocket 3.0 19:23:15 10° S 19:27:23 40° W 19:31:33 10° NNW
NOSS 2-2 (E) 3.5 19:25:36 10° SSW 19:29:39 89° WNW 19:34:09 10° NNE
OPS 6432 4.4 19:27:06 10° SSW 19:31:00 75° ESE 19:34:13 10° NNE
Atlas Centaur 2 1.0 19:32:30 10° W 19:36:06 66° S 19:39:39 10° E
ISS -2.1 19:33:50 10° S 19:36:25 22° SE 19:39:01 10° ENE
Cosmos 2181 Rocket 4.1 19:34:04 10° N 19:40:31 90° W 19:46:52 10° S
Cosmos 2056 Rocket 3.4 19:42:27 10° S 19:47:37 76° ESE 19:52:44 10° NNE
Cosmos 1371 Rocket 4.3 19:44:33 10° SSW 19:49:52 73° WNW 19:55:10 10° NNE
Cosmos 1825 4.0 19:50:38 14° E 19:51:16 14° E 19:53:20 10° NE
ERBS 3.7 19:49:26 10° NNW 19:52:26 26° NE 19:54:28 16° E
Cosmos 2074 Rocket 4.0 19:48:00 10° S 19:54:16 77° E 20:00:32 10° N
Cosmos 1408 4.3 19:56:38 16° E 19:56:57 16° E 19:59:13 10° NE
GPS 2-05 Rocket1 2.9 19:55:22 10° WSW 19:59:04 73° SSE 20:02:20 12° ENE
SJ-11-01 4.5 19:56:07 12° SSE 20:00:18 55° ENE 20:04:57 10° N
ALOS 3.1 19:56:55 10° S 20:01:27 51° W 20:06:00 10° NNW
CZ-2D R/B 4.4 19:58:13 10° S 20:01:50 42° W 20:05:28 10° NNW
USA 186 2.8 19:59:25 10° S 20:02:15 43° W 20:05:18 10° NNW
H-2A R/B 3.2 19:59:31 10° WSW 20:03:07 64° S 20:22:01 10° E
CZ-4 DEB 2.6 20:01:12 14° SSE 20:03:50 88° E 20:07:01 10° N
Abrixas rocket 2.4 20:03:45 10° NW 20:07:09 65° SW 20:08:53 26° SSE
NOSS 5 (C) 4.4 20:04:10 10° SSW 20:07:58 57° ESE 20:11:07 10° NE
USA 234 4.1 20:04:08 10° ENE 20:09:19 25° ESE 20:14:28 10° S
Cosmos 1356 Rocket 4.3 20:05:54 10° SSW 20:09:59 53° W 20:14:10 10° N
Cosmos 1908 Rocket 3.9 20:09:49 18° SSE 20:12:46 43° E 20:16:58 10° NNE
SPOT 5 3.8 20:13:03 22° ESE 20:15:39 35° ENE 20:20:28 10° N
Cosmos 1238 Rocket 4.3 20:13:41 10° NE 20:15:41 17° ENE 20:15:41 17° ENE
ATLAS 5 CENTAUR R/B 2.5 20:09:58 10° NNW 20:16:07 69° ENE 20:20:20 23° SE
Cosmos 1733 Rocket 3.5 20:12:01 10° SSW 20:16:24 64° W 20:20:46 10° N
CZ-3C R/B 3.6 19:35:53 10° WSW 20:17:06 39° S 20:22:13 22° SE
deb Chang Zheng 4 3.5 20:13:59 10° NNE 20:18:25 77° ESE 20:22:50 10° S
COSMOS 2406 3.2 20:12:51 10° NNW 20:18:37 76° ENE 20:22:23 22° SSE
Cosmos 1378 Rocket 4.4 20:18:30 10° NNE 20:22:18 30° E 20:23:04 28° E
YAOGAN 11 4.5 20:18:51 13° S 20:22:53 66° W 20:27:24 10° NNW
Envisat 3.0 20:21:16 24° SSE 20:24:18 63° ENE 20:29:19 10° N
Cosmos 2084 3.0 20:22:07 10° SSW 20:26:00 76° ESE 20:29:49 10° NE
Cosmos 2278 Rocket 2.2 20:21:38 10° S 20:27:09 56° ESE 20:32:41 10° NNE
STPSAT 2 (USA 217) 4.5 20:23:08 10° SSW 20:27:36 88° ESE 20:32:07 10° NNE
SEDSat Delta rocket 4.0 20:26:58 10° SW 20:29:47 25° S 20:29:47 25° S
Cosmos 2341 Rocket 4.1 20:26:22 18° SSE 20:30:56 55° E 20:37:03 10° NNE
Cosmos 1844 3.8 20:25:17 10° SSW 20:31:01 84° WNW 20:36:50 10° NNE
Cosmos 1782 2.7 20:27:45 10° N 20:31:48 88° WSW 20:33:41 31° S
Cosmos 1939 Rocket 2.7 20:31:15 31° S 20:32:59 84° W 20:36:54 10° NNW
Cosmos 1606 2.9 20:29:55 10° N 20:33:46 51° E 20:34:24 46° ESE
Cosmos 1420 Rocket 4.4 20:32:25 32° SE 20:33:57 40° ESE 20:38:49 10° NNE
Cosmos 1844 Rocket 3.4 20:28:51 10° SW 20:34:23 56° WNW 20:39:56 10° N
CENTAUR R/B 3.3 20:27:23 10° NW 20:35:24 72° WSW 20:41:20 21° SSE
Cosmos 1184 Rocket 3.6 20:38:44 37° NE 20:38:44 37° NE 20:41:10 10° NNE
Meteor 1-10 Rocket 4.5 20:32:41 10° NNW 20:38:28 71° W 20:42:50 17° S
H-2A R/B 4.0 20:38:30 14° ENE 20:39:02 14° ENE 20:41:49 10° NE
H-2A R/B 2.0 20:41:10 35° S 20:42:58 81° WSW 20:47:15 10° NNW
MetOp-A 4.2 20:42:41 38° SE 20:44:31 58° ENE 20:49:46 10° N
ERS-1 Rocket 3.8 20:42:26 16° S 20:46:15 48° W 20:51:08 10° NNW
CZ-4 SHROUD 4.3 20:47:55 35° NNE 20:47:55 35° NNE 20:50:03 10° N
Cosmos 407 Rocket 3.4 20:42:39 10° NNW 20:47:57 85° ENE 20:49:54 41° SSE
Meteosat 1 Rocket2 4.4 20:43:55 10° W 20:50:08 68° S 20:55:04 29° ESE
SL-8 Rocket 4.3 20:49:03 38° SE 20:50:39 45° E 20:56:33 10° NNE
Cosmos 1452 Rocket 3.9 20:45:28 10° SSW 20:50:40 65° WNW 20:55:56 10° N
Cosmos 962 Rocket 4.3 20:46:37 21° S 20:50:49 81° E 20:57:02 10° N
OAO 1 Rocket 4.3 20:45:42 10° WSW 20:50:58 69° SSE 20:52:48 40° E
Cosmos 2082 Rocket 4.0 20:48:08 10° NNE 20:51:27 16° ENE 20:52:20 15° ENE
SPOT 1/Viking Rocket 3.9 20:53:09 42° E 20:53:57 45° ENE 20:58:54 10° N
BREEZE-M DEB (TANK) 2.7 20:52:47 10° NW 20:55:10 68° SW 20:55:15 68° SSW
PSLV R/B 4.5 20:59:05 35° N 20:59:05 35° N 21:00:56 10° N
Cosmos 1140 Rocket 4.2 20:53:28 10° N 20:58:12 36° ENE 20:58:27 35° ENE
OAO 3 Rocket 3.4 20:54:41 10° SW 20:58:55 50° S 20:58:55 50° S
Cosmos 2154 Rocket 4.3 20:53:46 10° SSW 20:59:56 64° W 21:06:05 10° N
Cosmos 2297 3.8 20:59:44 50° SE 21:00:19 52° ESE 21:05:52 10° NNE
COS B Rocket 3.9 21:00:11 10° N 21:04:05 49° W 21:04:46 43° WSW
SL-27 R/B 4.0 21:01:47 10° NW 21:05:01 30° W 21:05:30 29° WSW
Okean 2 Rocket 2.9 21:06:51 75° SSW 21:07:13 87° W 21:11:39 10° N
Meteor 1-27 Rocket 3.9 21:02:08 10° NNW 21:07:38 67° W 21:09:45 37° SSW
NOAA 11 4.2 21:10:31 55° ESE 21:11:06 59° ENE 21:16:30 10° N
CZ-4B R/B 3.3 21:06:52 10° NNE 21:11:48 89° WNW 21:12:38 62° SSW
ISS -0.9 21:10:02 10° W 21:12:46 24° NW 21:15:29 10° NNE
Cosmos 1295 Rocket 4.4 21:10:43 38° S 21:13:20 88° E 21:19:40 10° N
CZ-4 R/B 3.8 21:09:13 10° NNE 21:13:21 62° ENE 21:13:21 62° ENE
COSMOS 2487 3.8 21:12:03 10° N 21:14:24 37° N 21:14:24 37° N
deb Centaur AC-2 4.5 21:14:00 10° W 21:19:11 61° SW 21:19:11 61° SW
Atlas Centaur 2 3.1 21:21:05 10° W 21:22:24 21° W 21:22:24 21° W
Cosmos 1825 4.2 21:25:32 22° WSW 21:26:37 25° W 21:29:48 10° NNW
Cosmos 489 Rocket 4.3 21:20:52 10° NNW 21:27:04 80° ENE 21:27:48 70° SE
Cosmos 1850 Rocket 4.4 21:23:38 10° N 21:28:23 52° NE 21:28:23 52° NE
YAOGAN 6 4.3 21:30:49 30° WNW 21:30:49 30° WNW 21:33:06 10° NNW
Cosmos 2366 rocket 3.8 21:29:42 68° ESE 21:30:06 70° E 21:36:23 10° N
Okean 3 4.3 21:27:09 10° NNW 21:31:02 46° W 21:31:02 46° W
Cosmos 1954 Rocket 4.3 21:32:03 10° NNW 21:37:09 57° WSW 21:37:18 56° WSW
Landsat 7 4.5 21:41:40 49° NNE 21:41:40 49° NNE 21:45:16 10° N
Cosmos 1975 Rocket 4.3 21:41:58 10° NNW 21:45:27 36° WNW 21:45:27 36° WNW
Cosmos 1741 Rocket 4.3 21:43:00 10° NNW 21:47:19 60° N 21:47:19 60° N
ARGOS 3.6 21:51:47 54° W 21:51:47 54° W 21:56:56 10° NNW
USA 234 3.4 21:46:03 10° NE 21:52:33 69° NW 21:58:59 10° SW
Meteor 1-25 Rocket 4.4 21:53:31 68° NNE 21:53:31 68° NNE 21:58:36 10° N
Cosmos 2218 Rocket 4.4 21:54:16 52° SW 21:55:29 61° W 22:01:50 10° N
Terra 2.9 21:57:56 39° N 21:57:56 39° N 22:01:01 10° N
ATLAS 5 CENTAUR R/B 4.4 21:56:33 10° WNW 22:00:24 17° WSW 22:01:55 16° SW
Cosmos 1727 Rocket 4.2 22:11:01 10° N 22:16:30 66° NW 22:16:30 66° NW
H-2A R/B 3.0 22:19:08 48° NW 22:19:08 48° NW 22:23:12 10° NNW
Cosmos 1833 Rocket 3.5 22:12:24 10° NNW 22:16:26 47° N 22:16:26 47° N
Cosmos 2082 Rocket 3.2 22:30:21 10° NNW 22:34:11 42° NW 22:34:11 42° NW
USA 229 DEB 4.0 22:34:42 10° NNW 22:40:49 68° NNW 22:40:49 68° NNW
USA 229 4.0 22:34:48 10° NNW 22:40:55 68° NNW 22:40:55 68° NNW
CZ-3 Stage 3 4.2 22:36:46 10° W 23:01:20 60° WSW 23:01:20 60° WSW
Cosmos 2369 Rocket 3.9 23:23:25 28° NNE 23:23:25 28° NNE 23:25:57 10° NNE
NOSS 3-1 (C) 4.3 23:23:47 10° NNW 23:30:21 64° N 23:30:21 64° N
Lacrosse 5 4.3 23:56:41 19° NNW 23:56:41 19° NNW 23:58:55 10° N
